#timestamp,LO_Frequency,Hit,StdDev 
1586293215.6,286047002.5,N
1586293235.4,286047000.4,N
1586293255.3,286046999.8,N
1586293275.1,286047000.2,N
1586293276.0,286047000.2,N
1586293295.8,286047000.1,N
1586293315.7,286047003.7,N
1586293335.5,286047003.6,N
1586293355.3,286047003.7,N
1586293375.2,286047004.5,N
1586293395.0,286047007.6,Y
1586293395.9,286047007.6,P
1586293415.8,286047004.7,N
1586293435.6,286047002.9,N
1586293455.4,286047004.9,N
1586293475.3,286047006.7,Y
1586293495.1,286047004.1,P
1586293515.9,286046998.5,P
1586293535.7,286046999.0,N
1586293555.5,286046999.5,N
1586293575.4,286046998.0,N
1586293595.2,286046994.9,N
1586293615.0,286046997.5,N
1586293616.0,286046997.5,N
1586293635.8,286046995.6,N
1586293655.6,286046995.2,N
1586293675.5,286046997.5,N
1586293695.3,286046996.7,N
1586293715.1,286046998.2,N
1586293735.9,286046999.0,N
1586293755.7,286046998.8,N
1586293775.6,286047000.7,N
1586293795.4,286046999.3,N
1586293815.2,286046998.7,N
1586293835.1,286046999.4,N
1586293836.0,286046999.4,N
1586293855.8,286046999.4,N
1586293875.7,286046997.4,N
1586293895.5,286046998.4,N
1586293915.3,286046998.8,N
1586293935.2,286046999.0,N
1586293955.9,286046998.7,N
1586293975.7,286046998.6,N
1586293995.6,286046997.6,N
1586294015.4,286046997.3,N
1586294035.3,286046998.4,N
1586294055.1,286047000.1,N
1586294056.0,286047000.1,N
1586294075.8,286046999.7,N
1586294095.7,286047000.1,N
1586294115.5,286046999.8,N
1586294135.3,286046999.8,N
1586294155.2,286047004.4,Y
1586294175.0,286047001.8,P
1586294175.9,286047001.8,N
1586294195.8,286047000.3,N
1586294215.6,286046999.3,N
1586294235.4,286046999.1,N
1586294255.3,286047000.9,N
1586294275.1,286047002.2,N
1586294295.9,286047001.2,N
1586294315.7,286047000.7,N
1586294335.5,286047001.1,N
1586294355.4,286047000.8,N
1586294375.2,286047000.6,N
1586294395.0,286047000.0,N
1586294395.9,286047000.0,N
1586294415.8,286046998.7,N
1586294435.6,286047001.1,N
1586294455.5,286047000.8,N
1586294475.3,286046995.6,Y
1586294495.2,286046995.2,P
1586294515.9,286046997.1,N
1586294535.7,286046998.1,N
1586294555.6,286047001.1,N
1586294575.4,286046999.8,N
1586294595.3,286046999.9,N
1586294615.1,286046999.8,N
1586294616.0,286046999.8,N
1586294635.8,286047002.6,N
1586294655.7,286047001.5,N
1586294675.5,286047004.4,N
1586294695.4,286047001.4,N
1586294715.2,286047001.5,N
1586294735.0,286047002.5,N
1586294735.9,286047002.5,N
1586294755.8,286047003.4,N
1586294775.6,286047003.0,N
1586294795.5,286047004.4,N
1586294815.3,286047002.3,N
1586294835.1,286047002.7,N
1586294855.9,286047001.6,N
1586294875.7,286047002.1,N
1586294895.5,286047001.6,N
1586294915.4,286047002.4,N
1586294935.2,286047002.3,N
1586294955.1,286047001.9,N
1586294956.0,286047001.9,N
1586294975.8,286047002.0,N
1586294995.6,286047001.8,N
1586295015.5,286047002.4,N
1586295035.3,286047001.1,N
1586295055.2,286047002.4,N
1586295075.9,286047002.0,N
1586295095.7,286047002.0,N
1586295115.6,286047005.9,Y
1586295135.4,286047002.5,P
1586295155.3,286047002.4,P
1586295175.1,286047001.0,P
1586295176.0,286047001.0,N
1586295195.8,286047000.1,N
1586295215.7,286047001.6,N
1586295235.5,286047002.3,N
1586295255.4,286047002.2,N
1586295275.2,286047001.5,N
1586295295.0,286047003.4,Y
1586295295.9,286047003.4,P
1586295315.8,286047000.8,N
1586295335.6,286046999.0,N
1586295355.4,286046998.1,N
1586295375.3,286046998.9,N
1586295395.1,286046996.8,N
1586295415.9,286046999.2,N
1586295435.7,286046995.2,N
1586295455.5,286046995.5,N
1586295475.4,286046996.6,N
1586295495.2,286046998.2,N
1586295515.1,286046998.9,N
1586295516.0,286046998.9,N
1586295535.8,286046998.1,N
1586295555.6,286046997.3,N
1586295575.5,286046997.8,N
1586295595.3,286046999.1,N
1586295615.1,286046999.5,N
1586295635.9,286046999.5,N
1586295655.7,286046997.2,N
1586295675.6,286046996.7,N
1586295695.4,286046998.3,N
1586295715.2,286046999.3,N
1586295735.1,286047011.9,Y
1586295736.0,286046999.0,P
1586295755.8,286046999.4,N
1586295775.7,286047001.0,N
1586295795.5,286047000.0,N
1586295815.3,286047000.7,N
1586295835.2,286047000.3,N
1586295855.0,286047000.5,N
1586295855.9,286047000.5,N
1586295875.8,286047002.8,Y
1586295895.6,286047001.1,P
1586295915.4,286047000.1,N
1586295935.3,286047000.7,N
1586295955.1,286047000.9,N
1586295975.8,286047000.3,N
1586295995.7,286046998.7,Y
1586296015.5,286046999.2,P
1586296035.4,286047001.0,N
1586296055.2,286047001.2,N
1586296075.0,286047000.1,N
1586296075.9,286047000.1,N
1586296095.8,286047002.1,Y
1586296115.6,286047002.5,P
1586296135.5,286047002.7,N
1586296155.3,286047001.2,N
1586296175.1,286047000.3,N
1586296195.9,286047001.1,N
1586296215.7,286047002.6,N
1586296235.5,286046998.1,N
1586296255.4,286047000.1,N
1586296275.2,286047000.7,N
1586296295.1,286047001.2,N
1586296296.0,286047001.2,N
1586296315.8,286046998.2,N
1586296335.6,286046998.5,N
1586296355.5,286047000.3,N
1586296375.3,286047000.9,N
1586296395.2,286046998.1,N
1586296415.9,286047002.8,N
1586296435.7,286047001.3,N
1586296455.6,286047000.9,N
1586296475.4,286046999.3,N
1586296495.2,286046998.1,N
1586296515.1,286047002.4,N
1586296516.0,286047002.4,N
1586296535.8,286047001.6,N
1586296555.7,286046999.8,N
1586296575.5,286047000.5,N
1586296595.3,286047000.6,N
1586296615.2,286047000.6,N
1586296635.0,286047000.2,N
1586296635.9,286047000.2,N
1586296655.8,286046998.9,N
1586296675.6,286047001.2,N
1586296695.4,286046999.8,N
1586296715.3,286046998.2,N
1586296735.1,286047000.5,N
1586296755.8,286047001.0,N
1586296775.7,286046996.8,N
1586296795.5,286046999.3,N
